No identification:

 

2001 QE34                                                                   

Epoch 2001 Oct. 18.0 TT = JDT 2452200.5                 Nakano

M  39.41519              (2000.0)            P               Q

n   0.31209769     Peri.  312.13877     -0.59012909     +0.80189099

a   2.1524960      Node   281.46009     -0.70974839     -0.57044843

e   0.7361765      Incl.    5.46699     -0.38471403     -0.17764972

P   3.16           H   18.3           G   0.15           U   6

Residuals in seconds of arc 

K018I  704  0.6+  0.4+    K018K  946  0.0   0.2-    K018R  711  1.3+  0.7+  

K018I  704  1.4+  0.2+    K018K  946  0.8+  0.0     K018R  711  0.9-  1.6+  

K018I  704  0.5+  1.8+    K018K  918  0.5-  0.3-    K018R  711  0.3+  0.1+  

K018I  557  0.4-  1.1-    K018K  918  1.4-  0.8-    K018S  711  0.2-  0.1-  

K018I  557  0.4-  0.3+    K018K  918  0.2-  0.1+    K018S  711  0.2-  0.1-  

K018I  557  0.8-  0.8-    K018K  918  0.5-  0.4-    K018S  711  0.4+  0.2+  

K018I  151  0.2-  0.4-    K018K  658  0.3-  0.1-    K018S  360  0.3+  0.1-  

K018I  151  0.3+  0.4+    K018K  658  0.4+  0.3+    K018S  360  0.1+  0.2-  

K018I  151  0.3+  1.0-    K018K  658  0.0   0.1-    K018S  360  0.2+  0.3-  

K018I  151  1.0+  0.6-    K018M  704  0.2-  0.3-    K0191  649  0.0   0.3-  

K018I  151  0.7+  0.3-    K018M  704  0.4-  0.1-    K0191  649  0.2+  0.1-  

K018J  046  0.3+  0.1+    K018M  704  0.4-  0.1-    K0191  649  0.0   0.1-  

K018J  046  0.6-  0.4+    K018M  704  0.0   0.4+    K019A  704  0.4-  0.0   

K018J  046  0.0   0.0     K018M  704  0.8-  0.6-    K019A  704  0.8+  0.2-  

K018J  704  0.0   0.2+    K018M  649  0.2-  0.0     K019A  704  0.4+  0.5+  

K018J  704  0.4+  0.3-    K018M  649  1.0-  0.6-    K019A  704  0.6-  1.0-  

K018J  704  0.2+  0.2+    K018M  649  0.4-  1.4+    K019A  704  0.0   0.1+  

K018J  704  0.5-  1.2+    K018M  644 (0.9-  2.5-)   K019M  360  0.1+  1.1-  

K018J  704  0.2-  0.0     K018M  644 (0.8-  2.7-)   K019M  360  0.4+  0.3-  

K018J  704  0.3-  0.9+    K018M  644 (0.6-  2.6-)   K019M  360  0.4+  0.3+  

K018J  704  0.2-  0.2+    K018M  413  0.2+  0.3+    K019N  644  0.0   0.4+  

K018J  704  0.4-  1.3-    K018M  413  0.1+  0.1-    K019N  644  0.8-  0.5+  

K018J  704  0.1-  0.0     K018M  413  0.3+  0.0     K019N  644  0.3-  0.3+  

K018J  704  0.2-  0.3+    K018N  413  0.0   0.2+                            

K018K  946  1.7+  0.7-    K018N  413  0.2+  0.0                             

  

NAKANO

         **** Don't distribute anyone except personal use only ****

                (C) Copyright 2001 OAA/ComputingSection

write mail from CFAD0::NAKANO on 2001-09-25 04:08:13(JST).

 



2001 QE34 

Epoch 2001 Aug. 19.0 TT = JDT 2452140.5                 Nakano

M  20.78524              (2000.0)            P               Q

n   0.31344899     Peri.  312.16187     -0.58945855     +0.80239871

a   2.1463051      Node   281.48541     -0.71025441     -0.56980343

e   0.7349284      Incl.    5.46007     -0.38480812     -0.17742707

P   3.14           H   18.2           G   0.15           U   *

  

NAKANO

         **** Don't distribute anyone except personal use only ****

                (C) Copyright 2001 OAA/ComputingSection

write mail from CFAD0::NAKANO on 2001-09-03 04:50:58(JST).

 



–ß‚è‚Ü‚·B